Radiation Dose at Monitoring Post of Fukushima Daini Nuclear Power Station
Date,Time,MP-1(microSv/h),MP-2(microSv/h),MP-3(microSv/h),MP-4(microSv/h),MP-5(microSv/h),MP-6(microSv/h),MP-7(microSv/h),Wind Direction,Wind Velocity(m/s),Rain
2016/06/17,00:00,0.408,0.240,0.420,0.385,0.368,0.196,0.170,south,5.4,Yes
2016/06/17,00:10,0.408,0.243,0.425,0.384,0.365,0.198,0.168,south-southeast,5.8,Yes
2016/06/17,00:20,0.409,0.243,0.420,0.382,0.369,0.196,0.169,south,3.0,Yes
2016/06/17,00:30,0.409,0.241,0.424,0.386,0.369,0.197,0.168,south-southeast,3.3,Yes
2016/06/17,00:40,0.411,0.242,0.422,0.383,0.366,0.197,0.169,south-southeast,4.0,Yes
2016/06/17,00:50,0.408,0.242,0.422,0.385,0.369,0.197,0.170,south-southeast,4.7,Yes
2016/06/17,01:00,0.410,0.244,0.423,0.384,0.365,0.197,0.170,south,3.5,Yes
2016/06/17,01:10,0.407,0.241,0.421,0.384,0.369,0.198,0.170,south,3.2,Yes
2016/06/17,01:20,0.410,0.243,0.423,0.384,0.365,0.198,0.169,south,3.2,Yes
2016/06/17,01:30,0.408,0.240,0.419,0.382,0.366,0.197,0.169,south-southeast,3.2,Yes
2016/06/17,01:40,0.408,0.242,0.421,0.386,0.367,0.198,0.169,south-southeast,1.4,Yes
2016/06/17,01:50,0.407,0.240,0.420,0.382,0.364,0.197,0.169,south-southeast,2.9,Yes
2016/06/17,02:00,0.407,0.242,0.418,0.383,0.366,0.196,0.168,southeast,3.3,Yes
2016/06/17,02:10,0.405,0.240,0.418,0.382,0.364,0.196,0.169,southeast,3.9,Yes
2016/06/17,02:20,0.404,0.241,0.417,0.379,0.366,0.197,0.168,south-southeast,4.7,Yes
2016/06/17,02:30,0.406,0.243,0.420,0.384,0.365,0.196,0.170,south-southeast,4.1,Yes
2016/06/17,02:40,0.404,0.241,0.417,0.380,0.369,0.197,0.169,southeast,5.0,Yes
2016/06/17,02:50,0.407,0.242,0.420,0.382,0.366,0.198,0.169,southeast,2.3,Yes
2016/06/17,03:00,0.404,0.240,0.419,0.380,0.369,0.196,0.169,south-southeast,3.1,Yes
2016/06/17,03:10,0.407,0.243,0.419,0.385,0.367,0.197,0.168,south,2.9,Yes
2016/06/17,03:20,0.405,0.241,0.420,0.382,0.367,0.195,0.168,south,3.2,No
2016/06/17,03:30,0.404,0.241,0.417,0.383,0.367,0.197,0.168,south,2.9,No
2016/06/17,03:40,0.406,0.242,0.420,0.383,0.366,0.196,0.168,south-southeast,1.6,Yes
2016/06/17,03:50,0.403,0.241,0.415,0.382,0.368,0.194,0.166,south-southeast,1.0,Yes
2016/06/17,04:00,0.406,0.241,0.418,0.382,0.364,0.196,0.168,-,CALM,Yes
2016/06/17,04:10,0.403,0.241,0.417,0.379,0.368,0.195,0.167,northeast,1.8,Yes
2016/06/17,04:20,0.406,0.241,0.419,0.381,0.364,0.197,0.169,north-northeast,2.2,Yes
2016/06/17,04:30,0.403,0.240,0.418,0.380,0.367,0.196,0.168,northeast,3.0,Yes
2016/06/17,04:40,0.406,0.241,0.418,0.382,0.366,0.197,0.168,northeast,2.0,No
2016/06/17,04:50,0.405,0.239,0.416,0.379,0.367,0.197,0.167,north-northeast,2.0,Yes
2016/06/17,05:00,0.405,0.240,0.417,0.381,0.366,0.195,0.167,north,2.9,Yes
2016/06/17,05:10,0.406,0.240,0.418,0.382,0.366,0.196,0.168,north,2.6,Yes
2016/06/17,05:20,0.403,0.241,0.416,0.380,0.366,0.195,0.168,north,3.2,Yes
2016/06/17,05:30,0.405,0.241,0.418,0.383,0.364,0.195,0.169,north,4.2,Yes
2016/06/17,05:40,0.401,0.240,0.417,0.379,0.366,0.196,0.168,north,4.9,Yes
2016/06/17,05:50,0.406,0.241,0.418,0.381,0.363,0.196,0.168,north,5.4,Yes
2016/06/17,06:00,0.401,0.239,0.417,0.377,0.367,0.196,0.166,north,4.8,Yes
2016/06/17,06:10,0.404,0.240,0.415,0.380,0.365,0.196,0.167,north,4.3,Yes
2016/06/17,06:20,0.403,0.239,0.416,0.378,0.366,0.195,0.167,north,4.4,Yes
2016/06/17,06:30,0.404,0.240,0.415,0.379,0.365,0.195,0.168,north,4.2,Yes
2016/06/17,06:40,0.404,0.240,0.420,0.381,0.366,0.195,0.168,north,4.2,Yes
2016/06/17,06:50,0.402,0.239,0.416,0.378,0.365,0.197,0.167,north,4.5,Yes
2016/06/17,07:00,0.406,0.241,0.417,0.383,0.363,0.195,0.168,north,4.7,Yes
2016/06/17,07:10,0.400,0.239,0.420,0.378,0.369,0.195,0.166,north-northwest,4.8,Yes
2016/06/17,07:20,0.405,0.241,0.415,0.381,0.363,0.196,0.168,north-northwest,4.8,No
2016/06/17,07:30,0.403,0.239,0.417,0.379,0.367,0.194,0.167,north-northwest,4.3,No
2016/06/17,07:40,0.402,0.239,0.416,0.377,0.367,0.195,0.166,north-northwest,5.2,No
2016/06/17,07:50,0.405,0.241,0.414,0.381,0.363,0.194,0.167,north-northwest,5.0,No
2016/06/17,08:00,0.402,0.240,0.420,0.378,0.367,0.194,0.167,north,2.6,No
2016/06/17,08:10,0.402,0.238,0.417,0.379,0.366,0.195,0.167,north,5.1,No
2016/06/17,08:20,0.407,0.241,0.415,0.381,0.363,0.195,0.166,north,5.5,No
2016/06/17,08:30,0.402,0.241,0.421,0.379,0.367,0.193,0.168,north,6.2,No
2016/06/17,08:40,0.407,0.239,0.416,0.380,0.366,0.196,0.167,north,5.5,No
2016/06/17,08:50,0.403,0.239,0.414,0.382,0.364,0.195,0.166,north,7.5,No
2016/06/17,09:00,0.402,0.241,0.420,0.379,0.364,0.194,0.167,north-northeast,7.9,No
2016/06/17,09:10,0.405,0.240,0.418,0.377,0.369,0.194,0.168,north,6.7,No
2016/06/17,09:20,0.406,0.238,0.416,0.379,0.367,0.194,0.167,north-northeast,7.3,No
2016/06/17,09:30,0.401,0.241,0.414,0.384,0.364,0.195,0.165,north-northeast,6.7,No
2016/06/17,09:40,0.406,0.241,0.421,0.381,0.363,0.194,0.166,northeast,7.9,No
2016/06/17,09:50,0.406,0.240,0.420,0.379,0.365,0.196,0.165,north-northeast,6.8,No
2016/06/17,10:00,0.403,0.239,0.416,0.379,0.371,0.197,0.165,north-northeast,7.9,No
2016/06/17,10:10,0.406,0.239,0.417,0.380,0.367,0.196,0.168,north,7.2,No
2016/06/17,10:20,0.407,0.242,0.421,0.384,0.364,0.196,0.168,north-northeast,8.0,No
2016/06/17,10:30,0.406,0.239,0.419,0.381,0.369,0.196,0.167,north,6.6,No
2016/06/17,10:40,0.409,0.239,0.417,0.380,0.370,0.197,0.167,north-northeast,7.4,No
2016/06/17,10:50,0.406,0.242,0.420,0.383,0.367,0.195,0.169,north-northeast,7.3,No
2016/06/17,11:00,0.404,0.242,0.422,0.384,0.365,0.195,0.168,north-northeast,6.8,No
2016/06/17,11:10,0.410,0.240,0.419,0.381,0.363,0.195,0.169,north-northeast,7.9,No
2016/06/17,11:20,0.407,0.239,0.416,0.378,0.368,0.196,0.167,north-northeast,7.9,No
2016/06/17,11:30,0.405,0.241,0.416,0.380,0.371,0.196,0.168,north-northeast,6.3,No
2016/06/17,11:40,0.405,0.242,0.415,0.379,0.369,0.194,0.167,northeast,6.0,No
2016/06/17,11:50,0.410,0.241,0.416,0.379,0.365,0.195,0.166,north-northeast,5.3,No
2016/06/17,12:00,0.408,0.241,0.423,0.386,0.365,0.198,0.168,north-northeast,5.6,No
2016/06/17,12:10,0.405,0.242,0.421,0.386,0.370,0.197,0.169,north-northeast,5.6,No
2016/06/17,12:20,0.408,0.241,0.420,0.383,0.372,0.197,0.169,north-northeast,5.3,No
2016/06/17,12:30,0.408,0.240,0.417,0.382,0.369,0.197,0.167,north,4.3,No
2016/06/17,12:40,0.406,0.241,0.420,0.385,0.366,0.196,0.169,north-northeast,4.4,No
2016/06/17,12:50,0.408,0.243,0.423,0.387,0.368,0.197,0.169,north-northeast,2.9,No
2016/06/17,13:00,0.412,0.242,0.422,0.383,0.372,0.197,0.170,northeast,4.2,No
2016/06/17,13:10,0.408,0.240,0.418,0.381,0.371,0.195,0.169,northeast,3.2,No
2016/06/17,13:20,0.405,0.241,0.416,0.381,0.368,0.196,0.169,north-northeast,2.1,No
2016/06/17,13:30,0.410,0.239,0.417,0.381,0.365,0.196,0.167,east-northeast,2.8,No
2016/06/17,13:40,0.411,0.241,0.417,0.386,0.368,0.198,0.167,northeast,2.8,No
2016/06/17,13:50,0.407,0.242,0.419,0.386,0.366,0.197,0.167,northeast,2.3,No
2016/06/17,14:00,0.406,0.243,0.421,0.385,0.366,0.198,0.167,northeast,2.7,No
2016/06/17,14:10,0.404,0.243,0.421,0.384,0.366,0.197,0.169,east-northeast,2.0,No
2016/06/17,14:20,0.405,0.242,0.421,0.384,0.367,0.197,0.171,east-northeast,1.0,No
2016/06/17,14:30,0.407,0.242,0.420,0.382,0.369,0.197,0.170,east-northeast,3.3,No
2016/06/17,14:40,0.411,0.239,0.419,0.384,0.367,0.198,0.170,east-southeast,2.7,No
2016/06/17,14:50,0.412,0.241,0.420,0.382,0.366,0.197,0.168,east-southeast,3.5,No
2016/06/17,15:00,0.409,0.243,0.421,0.385,0.367,0.199,0.168,south-southeast,3.5,No
2016/06/17,15:10,0.408,0.243,0.427,0.387,0.367,0.199,0.169,east-southeast,1.4,No
2016/06/17,15:20,0.412,0.241,0.426,0.385,0.373,0.198,0.169,south,2.0,No
2016/06/17,15:30,0.411,0.243,0.424,0.385,0.373,0.198,0.168,south-southeast,4.4,No
2016/06/17,15:40,0.408,0.244,0.420,0.388,0.369,0.198,0.170,southeast,3.5,No
2016/06/17,15:50,0.413,0.242,0.420,0.386,0.367,0.199,0.171,south,4.1,No
2016/06/17,16:00,0.412,0.243,0.425,0.385,0.365,0.199,0.170,south,4.4,No
2016/06/17,16:10,0.409,0.244,0.425,0.388,0.371,0.198,0.169,south-southeast,3.9,No
2016/06/17,16:20,0.411,0.243,0.423,0.387,0.372,0.198,0.170,southwest,1.4,No
2016/06/17,16:30,0.412,0.242,0.426,0.386,0.369,0.198,0.169,northwest,2.2,No
2016/06/17,16:40,0.408,0.244,0.426,0.390,0.374,0.198,0.170,west,3.6,No
2016/06/17,16:50,0.411,0.243,0.423,0.384,0.372,0.198,0.170,west,6.1,No
2016/06/17,17:00,0.412,0.244,0.426,0.388,0.369,0.198,0.169,west-northwest,6.8,No
2016/06/17,17:10,0.409,0.244,0.425,0.388,0.368,0.198,0.171,northwest,4.8,No
2016/06/17,17:20,0.411,0.243,0.421,0.384,0.370,0.198,0.170,north-northwest,4.9,No
2016/06/17,17:30,0.413,0.243,0.422,0.385,0.371,0.198,0.169,north-northwest,4.6,No
2016/06/17,17:40,0.409,0.244,0.426,0.389,0.370,0.197,0.171,north,4.6,No
2016/06/17,17:50,0.410,0.243,0.422,0.383,0.368,0.197,0.170,northeast,2.7,No
2016/06/17,18:00,0.412,0.243,0.424,0.388,0.371,0.198,0.170,north-northeast,1.6,No
2016/06/17,18:10,0.409,0.243,0.426,0.387,0.372,0.197,0.171,east,1.4,No
2016/06/17,18:20,0.414,0.243,0.423,0.386,0.368,0.199,0.170,east-northeast,0.6,No
2016/06/17,18:30,0.410,0.244,0.425,0.389,0.372,0.197,0.170,west-northwest,1.8,No
2016/06/17,18:40,0.410,0.243,0.425,0.385,0.371,0.198,0.171,west-northwest,2.4,No
2016/06/17,18:50,0.411,0.246,0.424,0.388,0.372,0.200,0.170,west,3.2,No
2016/06/17,19:00,0.408,0.243,0.426,0.386,0.372,0.198,0.170,west-northwest,4.7,No
2016/06/17,19:10,0.414,0.243,0.423,0.387,0.369,0.199,0.170,west-northwest,4.0,No
2016/06/17,19:20,0.410,0.244,0.426,0.390,0.374,0.199,0.170,west,4.8,No
2016/06/17,19:30,0.413,0.243,0.424,0.386,0.371,0.199,0.168,west,5.5,No
2016/06/17,19:40,0.412,0.245,0.425,0.390,0.372,0.199,0.171,west,6.5,No
2016/06/17,19:50,0.413,0.242,0.425,0.386,0.373,0.198,0.170,west,5.9,No
2016/06/17,20:00,0.414,0.244,0.423,0.388,0.370,0.200,0.171,west-northwest,4.5,No
2016/06/17,20:10,0.410,0.243,0.426,0.387,0.370,0.198,0.171,west-northwest,5.6,No
2016/06/17,20:20,0.413,0.245,0.425,0.388,0.370,0.199,0.170,west-northwest,6.2,No
2016/06/17,20:30,0.410,0.244,0.426,0.387,0.373,0.199,0.170,west-northwest,7.3,No
2016/06/17,20:40,0.412,0.246,0.426,0.387,0.371,0.200,0.171,west-northwest,7.5,No
2016/06/17,20:50,0.409,0.244,0.424,0.390,0.372,0.199,0.171,west-northwest,5.2,No
2016/06/17,21:00,0.412,0.244,0.427,0.386,0.370,0.200,0.170,west-northwest,4.5,No
2016/06/17,21:10,0.412,0.245,0.424,0.388,0.371,0.201,0.171,northwest,5.0,No
2016/06/17,21:20,0.411,0.245,0.426,0.387,0.372,0.199,0.171,northwest,5.1,No
2016/06/17,21:30,0.413,0.245,0.423,0.390,0.368,0.200,0.170,north-northwest,3.2,No
2016/06/17,21:40,0.411,0.244,0.427,0.389,0.373,0.199,0.170,northwest,2.5,No
2016/06/17,21:50,0.413,0.245,0.425,0.388,0.370,0.199,0.171,northwest,4.1,No
2016/06/17,22:00,0.411,0.244,0.422,0.390,0.371,0.198,0.170,northwest,3.1,No
2016/06/17,22:10,0.414,0.247,0.426,0.388,0.373,0.199,0.171,west-northwest,1.9,No
2016/06/17,22:20,0.410,0.243,0.424,0.388,0.370,0.198,0.171,south-southwest,0.9,No
2016/06/17,22:30,0.414,0.245,0.426,0.386,0.374,0.201,0.171,south,1.1,No
2016/06/17,22:40,0.410,0.244,0.424,0.389,0.370,0.199,0.171,south-southwest,0.7,No
2016/06/17,22:50,0.412,0.246,0.426,0.387,0.373,0.199,0.172,-,CALM,No
2016/06/17,23:00,0.409,0.244,0.424,0.389,0.370,0.200,0.170,northwest,1.5,No
2016/06/17,23:10,0.412,0.244,0.428,0.386,0.373,0.200,0.171,west,1.5,No
2016/06/17,23:20,0.411,0.244,0.425,0.390,0.371,0.199,0.170,west-northwest,1.0,No
2016/06/17,23:30,0.414,0.245,0.425,0.388,0.372,0.199,0.171,west-northwest,1.6,No
2016/06/17,23:40,0.411,0.244,0.425,0.389,0.374,0.199,0.171,west,1.4,No
2016/06/17,23:50,0.411,0.245,0.426,0.390,0.371,0.199,0.171,west,1.1,No
